N94593 KLGB-KSAN

Flight info

Callsign N94593
Flight time 1h 3m
Altitude 7000
Route CARDI MZB
Aircraft C182/L-SDGRY/S

Departure

Time 2026-05-04 04:22
Airport Long Beach International Airport (KLGB)

Arrival

Time 2026-05-04 05:25
Airport San Diego International Airport (KSAN)
Time Latitude Longitude Altitude Speed Heading
2026-05-04 03:51 33.81275 -118.16011 56 ft 0 kts 92°
2026-05-04 04:16 33.81275 -118.16010 56 ft 0 kts 91°
2026-05-04 04:16 33.81279 -118.16007 56 ft 0 kts 16°
2026-05-04 04:17 33.81291 -118.15997 54 ft 5 kts 56°
2026-05-04 04:17 33.81309 -118.15928 56 ft 12 kts 85°
2026-05-04 04:17 33.81309 -118.15789 54 ft 21 kts 90°
2026-05-04 04:17 33.81307 -118.15596 52 ft 24 kts 91°
2026-05-04 04:18 33.81309 -118.15382 49 ft 27 kts 90°
2026-05-04 04:18 33.81309 -118.15162 43 ft 24 kts 90°
2026-05-04 04:18 33.81310 -118.14975 41 ft 21 kts 94°
2026-05-04 04:18 33.81289 -118.14868 39 ft 0 kts 72°
2026-05-04 04:20 33.81292 -118.14863 39 ft 3 kts 42°
2026-05-04 04:20 33.81334 -118.14860 39 ft 7 kts
2026-05-04 04:20 33.81339 -118.14860 39 ft 0 kts
2026-05-04 04:21 33.81346 -118.14860 39 ft 5 kts
2026-05-04 04:21 33.81403 -118.14877 41 ft 8 kts 278°
2026-05-04 04:21 33.81394 -118.14906 41 ft 8 kts 269°
2026-05-04 04:22 33.81392 -118.15169 43 ft 54 kts 270°
2026-05-04 04:22 33.81393 -118.15662 228 ft 58 kts 272°
2026-05-04 04:22 33.81386 -118.16164 431 ft 62 kts 262°
2026-05-04 04:22 33.81377 -118.16709 664 ft 62 kts 267°
2026-05-04 04:23 33.81341 -118.17313 912 ft 75 kts 262°
2026-05-04 04:23 33.81332 -118.17798 1309 ft 46 kts 268°
2026-05-04 04:23 33.81370 -118.18200 1413 ft 51 kts 269°
2026-05-04 04:23 33.81406 -118.18597 1601 ft 49 kts 271°
2026-05-04 04:24 33.81425 -118.19038 1741 ft 57 kts 269°
2026-05-04 04:24 33.81434 -118.19547 1892 ft 65 kts 270°
2026-05-04 04:24 33.81444 -118.20131 2051 ft 74 kts 270°
2026-05-04 04:24 33.81464 -118.20779 2215 ft 80 kts 270°
2026-05-04 04:25 33.81478 -118.21464 2403 ft 84 kts 270°
2026-05-04 04:25 33.81491 -118.22176 2616 ft 86 kts 270°
2026-05-04 04:25 33.81210 -118.22748 2787 ft 91 kts 202°
2026-05-04 04:25 33.80614 -118.22835 2999 ft 90 kts 194°
2026-05-04 04:26 33.79933 -118.22984 3020 ft 106 kts 193°
2026-05-04 04:26 33.79181 -118.23140 3026 ft 113 kts 193°
2026-05-04 04:26 33.78391 -118.23305 3049 ft 115 kts 193°
2026-05-04 04:26 33.77634 -118.23456 3192 ft 115 kts 192°
2026-05-04 04:27 33.76863 -118.23618 3397 ft 110 kts 193°
2026-05-04 04:27 33.76121 -118.23775 3599 ft 106 kts 193°
2026-05-04 04:27 33.75414 -118.23932 3817 ft 101 kts 193°
2026-05-04 04:27 33.74733 -118.24060 4024 ft 99 kts 184°
2026-05-04 04:28 33.74135 -118.23676 4228 ft 101 kts 134°
2026-05-04 04:28 33.73783 -118.22955 4441 ft 98 kts 123°
2026-05-04 04:28 33.73448 -118.22258 4661 ft 94 kts 123°
2026-05-04 04:28 33.73130 -118.21593 4883 ft 89 kts 123°
2026-05-04 04:29 33.72816 -118.20942 4999 ft 96 kts 123°
2026-05-04 04:29 33.72449 -118.20184 5014 ft 113 kts 123°
2026-05-04 04:29 33.72035 -118.19328 5013 ft 122 kts 123°
2026-05-04 04:29 33.71602 -118.18427 5011 ft 126 kts 123°
2026-05-04 04:30 33.71161 -118.17507 5011 ft 128 kts 123°
2026-05-04 04:30 33.70715 -118.16578 5010 ft 129 kts 123°
2026-05-04 04:30 33.70265 -118.15642 5008 ft 130 kts 123°
2026-05-04 04:30 33.69814 -118.14702 5009 ft 130 kts 124°
2026-05-04 04:31 33.69360 -118.13759 5008 ft 130 kts 123°
2026-05-04 04:31 33.68907 -118.12817 5011 ft 130 kts 123°
2026-05-04 04:31 33.68453 -118.11874 5004 ft 130 kts 124°
2026-05-04 04:31 33.67999 -118.10932 5009 ft 131 kts 123°
2026-05-04 04:32 33.67546 -118.09990 5006 ft 130 kts 124°
2026-05-04 04:32 33.67094 -118.09052 4999 ft 129 kts 124°
2026-05-04 04:32 33.66648 -118.08125 5001 ft 127 kts 124°
2026-05-04 04:32 33.66209 -118.07214 4994 ft 126 kts 123°
2026-05-04 04:33 33.65769 -118.06301 5012 ft 126 kts 123°
2026-05-04 04:33 33.65330 -118.05389 5014 ft 127 kts 124°
2026-05-04 04:33 33.64886 -118.04470 5014 ft 128 kts 124°
2026-05-04 04:33 33.64438 -118.03544 5017 ft 129 kts 124°
2026-05-04 04:34 33.63992 -118.02619 5014 ft 126 kts 123°
2026-05-04 04:34 33.63556 -118.01714 5013 ft 125 kts 123°
2026-05-04 04:34 33.63120 -118.00811 5012 ft 125 kts 123°
2026-05-04 04:34 33.62681 -117.99901 5014 ft 126 kts 123°
2026-05-04 04:35 33.62236 -117.98983 5014 ft 128 kts 124°
2026-05-04 04:35 33.61792 -117.98062 5017 ft 127 kts 123°
2026-05-04 04:35 33.61346 -117.97139 5017 ft 128 kts 123°
2026-05-04 04:35 33.60901 -117.96219 5018 ft 128 kts 123°
2026-05-04 04:36 33.60454 -117.95295 5018 ft 128 kts 123°
2026-05-04 04:36 33.60007 -117.94370 5018 ft 128 kts 122°
2026-05-04 04:36 33.59559 -117.93445 5018 ft 128 kts 123°
2026-05-04 04:36 33.59115 -117.92526 5018 ft 127 kts 123°
2026-05-04 04:37 33.57783 -117.89775 5016 ft 128 kts 123°
2026-05-04 04:37 33.57336 -117.88852 5015 ft 128 kts 123°
2026-05-04 04:38 33.56887 -117.87925 5014 ft 128 kts 122°
2026-05-04 04:38 33.56443 -117.87010 5013 ft 129 kts 123°
2026-05-04 04:38 33.55988 -117.86071 5013 ft 129 kts 123°
2026-05-04 04:38 33.55545 -117.85157 5012 ft 128 kts 122°
2026-05-04 04:39 33.55089 -117.84218 5015 ft 129 kts 123°
2026-05-04 04:39 33.54640 -117.83291 5010 ft 128 kts 123°
2026-05-04 04:39 33.54192 -117.82368 5012 ft 128 kts 122°
2026-05-04 04:39 33.53745 -117.81446 5007 ft 128 kts 123°
2026-05-04 04:40 33.53305 -117.80540 5005 ft 128 kts 123°
2026-05-04 04:40 33.52857 -117.79617 5006 ft 128 kts 122°
2026-05-04 04:40 33.52406 -117.78691 5005 ft 129 kts 122°
2026-05-04 04:40 33.51956 -117.77764 5003 ft 129 kts 122°
2026-05-04 04:41 33.51504 -117.76833 5004 ft 129 kts 122°
2026-05-04 04:41 33.51051 -117.75902 5004 ft 129 kts 122°
2026-05-04 04:41 33.50597 -117.74969 5002 ft 129 kts 122°
2026-05-04 04:41 33.50142 -117.74034 4999 ft 130 kts 122°
2026-05-04 04:42 33.49682 -117.73088 5009 ft 132 kts 122°
2026-05-04 04:42 33.49220 -117.72137 5002 ft 132 kts 122°
2026-05-04 04:42 33.48759 -117.71189 5001 ft 132 kts 122°
2026-05-04 04:42 33.48296 -117.70242 5002 ft 131 kts 122°
2026-05-04 04:43 33.47641 -117.69512 4994 ft 129 kts 153°
2026-05-04 04:43 33.46855 -117.68991 4996 ft 129 kts 152°
2026-05-04 04:43 33.46075 -117.68455 4997 ft 129 kts 152°
2026-05-04 04:43 33.45292 -117.67920 4992 ft 130 kts 152°
2026-05-04 04:44 33.44511 -117.67387 4992 ft 129 kts 152°
2026-05-04 04:44 33.43731 -117.66855 4990 ft 129 kts 152°
2026-05-04 04:44 33.42953 -117.66324 4990 ft 129 kts 152°
2026-05-04 04:44 33.42173 -117.65792 4988 ft 129 kts 152°
2026-05-04 04:45 33.41393 -117.65260 4991 ft 129 kts 152°
2026-05-04 04:45 33.40612 -117.64728 4992 ft 130 kts 152°
2026-05-04 04:45 33.39828 -117.64193 4991 ft 130 kts 152°
2026-05-04 04:47 33.35124 -117.60989 4997 ft 130 kts 152°
2026-05-04 04:47 33.34339 -117.60455 4996 ft 130 kts 152°
2026-05-04 04:47 33.33552 -117.59919 4999 ft 130 kts 152°
2026-05-04 04:47 33.32762 -117.59382 4996 ft 131 kts 153°
2026-05-04 04:48 33.31974 -117.58846 5001 ft 130 kts 153°
2026-05-04 04:49 33.28849 -117.56721 4995 ft 130 kts 152°
2026-05-04 04:49 33.28330 -117.56369 4998 ft 130 kts 153°
2026-05-04 04:49 33.27541 -117.55832 4997 ft 130 kts 153°
2026-05-04 04:49 33.26752 -117.55296 4998 ft 130 kts 153°
2026-05-04 04:50 33.25963 -117.54761 4998 ft 130 kts 152°
2026-05-04 04:50 33.24920 -117.54053 4990 ft 130 kts 152°
2026-05-04 04:50 33.24389 -117.53692 4987 ft 130 kts 153°
2026-05-04 04:50 33.23605 -117.53159 4989 ft 130 kts 153°
2026-05-04 04:51 33.22820 -117.52627 4990 ft 130 kts 152°
2026-05-04 04:51 33.22037 -117.52096 4994 ft 130 kts 152°
2026-05-04 04:51 33.21251 -117.51563 4991 ft 130 kts 152°
2026-05-04 04:51 33.20464 -117.51029 4992 ft 130 kts 152°
2026-05-04 04:52 33.19677 -117.50496 4993 ft 130 kts 152°
2026-05-04 04:52 33.18889 -117.49961 4993 ft 130 kts 152°
2026-05-04 04:52 33.18100 -117.49426 4990 ft 131 kts 152°
2026-05-04 04:52 33.17311 -117.48892 4989 ft 130 kts 153°
2026-05-04 04:53 33.16524 -117.48358 4989 ft 130 kts 152°
2026-05-04 04:53 33.15736 -117.47825 4995 ft 130 kts 152°
2026-05-04 04:53 33.14948 -117.47291 4990 ft 130 kts 152°
2026-05-04 04:53 33.14162 -117.46759 4990 ft 130 kts 152°
2026-05-04 04:54 33.13372 -117.46225 4992 ft 130 kts 152°
2026-05-04 04:54 33.12582 -117.45690 4988 ft 131 kts 152°
2026-05-04 04:54 33.11792 -117.45155 4988 ft 130 kts 153°
2026-05-04 04:54 33.11013 -117.44628 4989 ft 130 kts 152°
2026-05-04 04:55 33.10215 -117.44089 4990 ft 130 kts 153°
2026-05-04 04:55 33.09429 -117.43557 4987 ft 130 kts 152°
2026-05-04 04:55 33.08643 -117.43025 4986 ft 130 kts 152°
2026-05-04 04:55 33.07852 -117.42491 4986 ft 131 kts 152°
2026-05-04 04:56 33.07061 -117.41956 4986 ft 131 kts 153°
2026-05-04 04:56 33.06279 -117.41429 4984 ft 131 kts 153°
2026-05-04 04:56 33.05488 -117.40894 4984 ft 130 kts 152°
2026-05-04 04:56 33.04702 -117.40363 4986 ft 130 kts 152°
2026-05-04 04:57 33.03907 -117.39826 4989 ft 130 kts 153°
2026-05-04 04:57 33.03122 -117.39296 4987 ft 130 kts 152°
2026-05-04 04:57 33.02347 -117.38774 4990 ft 130 kts 152°
2026-05-04 04:57 33.01550 -117.38235 4990 ft 130 kts 152°
2026-05-04 04:58 33.00762 -117.37704 4986 ft 130 kts 152°
2026-05-04 04:58 32.99974 -117.37173 4986 ft 130 kts 152°
2026-05-04 04:58 32.99187 -117.36642 4987 ft 130 kts 152°
2026-05-04 04:58 32.98399 -117.36111 4987 ft 130 kts 152°
2026-05-04 04:59 32.97612 -117.35580 4985 ft 130 kts 152°
2026-05-04 04:59 32.96828 -117.35052 4983 ft 130 kts 152°
2026-05-04 04:59 32.96043 -117.34523 4983 ft 130 kts 152°
2026-05-04 04:59 32.95259 -117.33994 4984 ft 130 kts 152°
2026-05-04 05:00 32.94474 -117.33466 5002 ft 129 kts 152°
2026-05-04 05:00 32.93691 -117.32938 5001 ft 130 kts 153°
2026-05-04 05:00 32.92123 -117.31883 5006 ft 129 kts 152°
2026-05-04 05:01 32.91341 -117.31357 5008 ft 129 kts 153°
2026-05-04 05:01 32.90569 -117.30837 5000 ft 129 kts 153°
2026-05-04 05:01 32.89791 -117.30314 5008 ft 128 kts 152°
2026-05-04 05:01 32.89209 -117.29530 5002 ft 132 kts 109°
2026-05-04 05:02 32.88979 -117.28478 5013 ft 132 kts 109°
2026-05-04 05:02 32.88704 -117.27437 5020 ft 132 kts 109°
2026-05-04 05:02 32.88431 -117.26395 5025 ft 132 kts 109°
2026-05-04 05:02 32.88157 -117.25354 5026 ft 132 kts 109°
2026-05-04 05:03 32.87885 -117.24305 5026 ft 133 kts 108°
2026-05-04 05:03 32.87610 -117.23251 5028 ft 133 kts 109°
2026-05-04 05:04 32.86790 -117.20109 5027 ft 133 kts 109°
2026-05-04 05:04 32.86519 -117.19060 5027 ft 133 kts 109°
2026-05-04 05:04 32.86249 -117.18010 5030 ft 133 kts 109°
2026-05-04 05:06 32.84335 -117.10688 5029 ft 133 kts 109°
2026-05-04 05:06 32.84060 -117.09641 5027 ft 133 kts 109°
2026-05-04 05:06 32.83786 -117.08594 5029 ft 133 kts 109°
2026-05-04 05:07 32.83512 -117.07543 5027 ft 133 kts 109°
2026-05-04 05:07 32.83237 -117.06493 5028 ft 133 kts 109°
2026-05-04 05:07 32.82961 -117.05448 5019 ft 133 kts 109°
2026-05-04 05:09 32.79381 -116.98618 5016 ft 126 kts 147°
2026-05-04 05:09 32.78710 -116.97951 5015 ft 126 kts 139°
2026-05-04 05:10 32.78061 -116.97254 5020 ft 126 kts 141°
2026-05-04 05:10 32.77397 -116.96574 5018 ft 126 kts 141°
2026-05-04 05:10 32.76732 -116.95901 5016 ft 126 kts 142°
2026-05-04 05:10 32.76063 -116.95230 5018 ft 126 kts 142°
2026-05-04 05:11 32.75420 -116.94584 5010 ft 114 kts 142°
2026-05-04 05:11 32.74855 -116.94017 5005 ft 99 kts 142°
2026-05-04 05:11 32.74350 -116.93510 5000 ft 90 kts 142°
2026-05-04 05:11 32.73895 -116.93054 5000 ft 83 kts 142°
2026-05-04 05:12 32.73452 -116.92610 5006 ft 87 kts 142°
2026-05-04 05:12 32.72958 -116.92117 5028 ft 99 kts 142°
2026-05-04 05:12 32.72397 -116.91559 5022 ft 110 kts 142°
2026-05-04 05:12 32.71809 -116.90971 5022 ft 110 kts 142°
2026-05-04 05:13 32.71230 -116.90392 5015 ft 109 kts 142°
2026-05-04 05:13 32.70657 -116.89819 5018 ft 107 kts 142°
2026-05-04 05:13 32.70092 -116.89254 5014 ft 105 kts 142°
2026-05-04 05:13 32.69481 -116.88820 4982 ft 104 kts 170°
2026-05-04 05:14 32.68772 -116.88964 4845 ft 107 kts 211°
2026-05-04 05:14 32.68322 -116.89644 4711 ft 107 kts 249°
2026-05-04 05:14 32.68085 -116.90478 4593 ft 106 kts 251°
2026-05-04 05:14 32.67842 -116.91302 4469 ft 105 kts 250°
2026-05-04 05:15 32.67600 -116.92121 4347 ft 105 kts 250°
2026-05-04 05:15 32.67359 -116.92935 4218 ft 104 kts 251°
2026-05-04 05:15 32.67217 -116.93775 4052 ft 106 kts 275°
2026-05-04 05:15 32.67423 -116.94613 3938 ft 105 kts 285°
2026-05-04 05:16 32.67621 -116.95420 3843 ft 99 kts 285°
2026-05-04 05:16 32.67805 -116.96171 3741 ft 93 kts 284°
2026-05-04 05:16 32.67984 -116.96900 3641 ft 92 kts 284°
2026-05-04 05:16 32.68157 -116.97611 3580 ft 89 kts 284°
2026-05-04 05:17 32.68330 -116.98320 3466 ft 89 kts 285°
2026-05-04 05:17 32.68502 -116.99022 3363 ft 88 kts 285°
2026-05-04 05:17 32.68672 -116.99716 3262 ft 87 kts 285°
2026-05-04 05:17 32.68840 -117.00407 3158 ft 87 kts 285°
2026-05-04 05:18 32.69008 -117.01093 3058 ft 87 kts 285°
2026-05-04 05:18 32.69176 -117.01781 2956 ft 87 kts 284°
2026-05-04 05:18 32.69338 -117.02448 2887 ft 81 kts 285°
2026-05-04 05:18 32.69492 -117.03077 2817 ft 79 kts 284°
2026-05-04 05:19 32.69639 -117.03685 2757 ft 77 kts 283°
2026-05-04 05:19 32.69791 -117.04306 2666 ft 79 kts 284°
2026-05-04 05:19 32.69948 -117.04947 2554 ft 83 kts 284°
2026-05-04 05:19 32.70112 -117.05622 2417 ft 86 kts 284°
2026-05-04 05:20 32.70279 -117.06304 2267 ft 85 kts 285°
2026-05-04 05:20 32.70443 -117.06972 2120 ft 82 kts 285°
2026-05-04 05:20 32.70597 -117.07604 2035 ft 75 kts 284°
2026-05-04 05:20 32.70734 -117.08169 2020 ft 68 kts 284°
2026-05-04 05:21 32.70867 -117.08717 1962 ft 71 kts 284°
2026-05-04 05:21 32.71002 -117.09270 1876 ft 67 kts 284°
2026-05-04 05:21 32.71128 -117.09792 1774 ft 65 kts 283°
2026-05-04 05:21 32.71251 -117.10301 1663 ft 63 kts 283°
2026-05-04 05:22 32.71371 -117.10796 1559 ft 62 kts 283°
2026-05-04 05:22 32.71493 -117.11299 1468 ft 65 kts 282°
2026-05-04 05:22 32.71619 -117.11814 1363 ft 65 kts 283°
2026-05-04 05:22 32.71746 -117.12335 1261 ft 67 kts 284°
2026-05-04 05:23 32.71877 -117.12874 1148 ft 69 kts 284°
2026-05-04 05:23 32.72009 -117.13417 1035 ft 68 kts 283°
2026-05-04 05:23 32.72137 -117.13947 899 ft 66 kts 284°
2026-05-04 05:23 32.72261 -117.14456 796 ft 63 kts 282°
2026-05-04 05:24 32.72378 -117.14941 694 ft 60 kts 282°
2026-05-04 05:24 32.72501 -117.15419 586 ft 61 kts 285°
2026-05-04 05:24 32.72618 -117.15908 510 ft 62 kts 284°
2026-05-04 05:24 32.72741 -117.16407 398 ft 63 kts 283°
2026-05-04 05:25 32.72855 -117.16912 294 ft 65 kts 285°
2026-05-04 05:25 32.72982 -117.17432 170 ft 62 kts 286°
2026-05-04 05:25 32.73100 -117.17911 66 ft 60 kts 285°
2026-05-04 05:25 32.73204 -117.18336 20 ft 42 kts 287°
2026-05-04 05:26 32.73267 -117.18603 20 ft 24 kts 284°
2026-05-04 05:26 32.73300 -117.18735 19 ft 12 kts 289°
2026-05-04 05:26 32.73327 -117.18792 18 ft 8 kts 307°
2026-05-04 05:26 32.73385 -117.18814 17 ft 11 kts 11°
2026-05-04 05:27 32.73416 -117.18743 17 ft 13 kts 111°